Location: Auckland
(36.8670°S, 174.7670°E)
Time: 09:29:14
(UTC+12:00)

A-11 Canister half - Pass Details

Date: 29 July 2019
Orbit: 1526 x 1683 km, 47.3° (Epoch: 23 August)

Event Time Altitude Azimuth Distance (km) Brightness Sun altitude
Rises 04:28:14 0° 349° (N) 4,669 11.4 -34.8°
Reaches altitude 10° 04:31:56 10° 1° (N) 3,687 11.0 -34.1°
Maximum altitude 04:39:08 26° 53° (NE) 2,662 10.6 -32.6°
Drops below altitude 10° 04:46:23 10° 104° (ESE) 3,731 11.8 -31.2°
Sets 04:50:06 0° 116° (ESE) 4,736 12.5 -30.4°
